Powrót do katalogu

CERES 1

AktywnyMilitariaLEO
NORAD 49464·PAYLOAD·🇫🇷 France

Wystrzelony Nov 16, 2021 z Guiana Space Centre

Loading…

Następne Przeloty (najbliższe 24 godziny)

TLE

NieaktualneSource: Mike McCants

Epoka: Aug 26, 2026, 02:20 UTC

1 49464U 21105A   26238.09733964 0.00000334  00000-0  56294-4 0    01
2 49464  74.9991 218.2999 0012841 253.0055 107.0521 14.69464780    09

Śledź CERES 1 w czasie rzeczywistym z AllMySat

Download on the App Store